• Currently

    Reported at Lexington, Jim Kelly Field Airport, NE
    10:55 AM CST SAT NOV 18 2017
  • 45°F7°C
  • Clear
    Clear
  • Feels Like:37°F2.5°CDew Point:32°F0°CHumidity:61% Winds:NW 23 mph G 3337 kph G 53Pressure:30.15 in1021 hPaVisibility:10.00 miles16090.00 meters
Time Weather Temp Dew Point
Humidity Winds Visibility Pressure Precipitation
1 hr 24 hr
Saturday, November 18
12:15 12:15 Sunny Sunny 46°F8°C 30°F-1°C 56% NNW 26 mphNNW 43 kph 10.0 miles16.1 km 30.15 in1021 hPa 0.00 in0.00 mm --
11:55 11:55 Sunny Sunny 45°F7°C 31°F-0°C 59% NW 23 mphNW 37 kph 10.0 miles16.1 km 30.15 in1021 hPa 0.00 in0.00 mm --
11:35 11:35 Sunny Sunny 44°F7°C 31°F-0°C 61% NNW 22 mphNNW 35 kph 10.0 miles16.1 km 30.12 in1020 hPa 0.00 in0.00 mm --
11:15 11:15 Sunny Sunny 43°F6°C 31°F-0°C 63% NNW 25 mphNNW 41 kph 10.0 miles16.1 km 30.12 in1020 hPa 0.00 in0.00 mm --
10:55 10:55 Sunny Sunny 42°F6°C 32°F-0°C 67% NNW 24 mphNNW 39 kph 10.0 miles16.1 km 30.12 in1020 hPa 0.00 in0.00 mm --
10:35 10:35 Sunny Sunny 41°F5°C 32°F0°C 69% NNW 24 mphNNW 39 kph 10.0 miles16.1 km 30.12 in1020 hPa 0.00 in0.00 mm --
10:15 10:15 Sunny Sunny 40°F5°C 32°F0°C 72% NNW 24 mphNNW 39 kph 10.0 miles16.1 km 30.09 in1019 hPa 0.00 in0.00 mm --
09:55 09:55 Sunny Sunny 39°F4°C 32°F0°C 75% NW 21 mphNW 33 kph 10.0 miles16.1 km 30.09 in1019 hPa 0.00 in0.00 mm --
09:35 09:35 Sunny Sunny 38°F4°C 33°F0°C 81% NW 17 mphNW 28 kph 10.0 miles16.1 km 30.06 in1018 hPa 0.00 in0.00 mm --
09:15 09:15 Sunny Sunny 37°F3°C 33°F1°C 86% NW 17 mphNW 28 kph 10.0 miles16.1 km 30.06 in1018 hPa 0.00 in0.00 mm --
08:55 08:55 Sunny Sunny 37°F3°C 33°F1°C 87% NW 13 mphNW 20 kph 10.0 miles16.1 km 30.06 in1018 hPa 0.00 in0.00 mm --
08:35 08:35 Partly Cloudy Partly Cloudy 38°F3°C 34°F1°C 86% NW 14 mphNW 22 kph 10.0 miles16.1 km 30.03 in1017 hPa 0.00 in0.00 mm --
08:15 08:15 Mostly Cloudy Mostly Cloudy 38°F4°C 34°F1°C 85% NW 16 mphNW 26 kph 10.0 miles16.1 km 30.03 in1017 hPa 0.00 in0.00 mm --
07:55 07:55 Cloudy Cloudy 39°F4°C 35°F2°C 86% NW 17 mphNW 28 kph 10.0 miles16.1 km 30 in1016 hPa 0.00 in0.00 mm --
07:35 07:35 Cloudy Cloudy 39°F4°C 35°F2°C 86% NW 15 mphNW 24 kph 10.0 miles16.1 km 29.97 in1015 hPa 0.00 in0.00 mm --
07:15 07:15 Cloudy Cloudy 39°F4°C 35°F2°C 86% NW 13 mphNW 20 kph 10.0 miles16.1 km 29.97 in1015 hPa 0.00 in0.00 mm --
06:55 06:55 Cloudy Cloudy 38°F4°C 35°F2°C 87% NW 16 mphNW 26 kph 10.0 miles16.1 km 29.97 in1015 hPa 0.00 in0.00 mm --
06:35 06:35 Cloudy Cloudy 38°F3°C 34°F1°C 87% NW 14 mphNW 22 kph 10.0 miles16.1 km 29.94 in1014 hPa 0.00 in0.00 mm --
06:15 06:15 Cloudy Cloudy 38°F3°C 34°F1°C 86% NW 12 mphNW 19 kph 10.0 miles16.1 km 29.94 in1014 hPa 0.00 in0.00 mm --
05:55 05:55 Cloudy Cloudy 38°F3°C 34°F1°C 86% NNW 15 mphNNW 24 kph 10.0 miles16.1 km 29.91 in1013 hPa 0.00 in0.00 mm --
05:35 05:35 Cloudy Cloudy 38°F3°C 34°F1°C 86% NNW 16 mphNNW 26 kph 10.0 miles16.1 km 29.91 in1013 hPa 0.00 in0.00 mm --
05:15 05:15 Cloudy With Light Rain Cloudy With Light Rain 38°F3°C 34°F1°C 88% NNW 17 mphNNW 28 kph 10.0 miles16.1 km 29.88 in1012 hPa 0.00 in0.00 mm --
04:55 04:55 Cloudy With Light Rain Cloudy With Light Rain 38°F3°C 34°F1°C 87% N 20 mphN 31 kph 10.0 miles16.1 km 29.85 in1011 hPa 0.01 in6.45 mm --
04:35 04:35 Cloudy Cloudy 39°F4°C 35°F2°C 87% NNW 18 mphNNW 30 kph 10.0 miles16.1 km 29.85 in1011 hPa 0.00 in0.00 mm --
04:15 04:15 Cloudy Cloudy 39°F4°C 36°F2°C 89% NNW 16 mphNNW 26 kph 10.0 miles16.1 km 29.83 in1010 hPa 0.00 in0.00 mm --
03:55 03:55 Cloudy Cloudy 38°F4°C 35°F2°C 88% NNW 14 mphNNW 22 kph 10.0 miles16.1 km 29.83 in1010 hPa 0.00 in0.00 mm --
03:35 03:35 Cloudy With Light Rain Cloudy With Light Rain 39°F4°C 36°F2°C 88% NNW 15 mphNNW 24 kph 10.0 miles16.1 km 29.83 in1010 hPa 0.00 in0.00 mm --
03:15 03:15 Cloudy With Light Rain Cloudy With Light Rain 39°F4°C 36°F2°C 87% N 16 mphN 26 kph 10.0 miles16.1 km 29.8 in1009 hPa 0.00 in0.00 mm --
02:55 02:55 Cloudy With Light Rain Cloudy With Light Rain 39°F4°C 36°F2°C 86% N 20 mphN 31 kph 10.0 miles16.1 km 29.8 in1009 hPa 0.05 in32.26 mm --
02:35 02:35 Cloudy With Light Rain Cloudy With Light Rain 40°F5°C 37°F3°C 88% NNW 17 mphNNW 28 kph 7.0 miles11.3 km 29.77 in1008 hPa 0.03 in19.35 mm --
02:15 02:15 Cloudy With Light Rain Cloudy With Light Rain 41°F5°C 37°F3°C 88% NNW 14 mphNNW 22 kph 10.0 miles16.1 km 29.77 in1008 hPa 0.01 in6.45 mm --
01:55 01:55 Cloudy With Light Rain Cloudy With Light Rain 41°F5°C 37°F3°C 87% N 12 mphN 19 kph 10.0 miles16.1 km 29.77 in1008 hPa 0.04 in25.81 mm --
01:35 01:35 Cloudy With Light Rain Cloudy With Light Rain 41°F5°C 38°F3°C 89% N 12 mphN 19 kph 10.0 miles16.1 km 29.74 in1007 hPa 0.02 in12.90 mm --
01:15 01:15 Cloudy With Light Rain Cloudy With Light Rain 41°F5°C 38°F4°C 91% N 14 mphN 22 kph 10.0 miles16.1 km 29.71 in1006 hPa 0.02 in12.90 mm --